Regional Weather Roundup
Issued by NWS Newport/Morehead, NC

Current Version | Previous Version | Text Only | Print | Product List | Glossary On
Versions: 1 2 3 4 5 6 7 8 9 10 11 12 13 14 15 16 17 18 19 20 21 22 23 24 25 26 27 28 29 30 31 32 33 34 35 36 37 38 39 40 41 42 43 44 45 46 47 48 49 50
000
ASUS42 KMHX 221810
RWRMHX
WEATHER ROUNDUP FOR EASTERN NORTH CAROLINA
NATIONAL WEATHER SERVICE NEWPORT/MOREHEAD CITY NC
200 PM EDT TUE JUL 22 2014

NOTE: "FAIR" INDICATES FEW OR NO CLOUDS BELOW 12,000 FEET
WITH NO SIGNIFICANT WEATHER AND/OR OBSTRUCTIONS TO VISIBILITY

NCZ015>017-031-032-045>047-102-103-221900-
NORTH COAST

CITY           SKY/WX    TMP DP  RH WIND       PRES   REMARKS
EDENTON        PTSUNNY   81  73  77 E9        30.13S
ELIZABETH CITY PTSUNNY   83  73  72 E12       30.14F
KITTY HAWK     MOCLDY    79  74  85 E7        30.13S
MANTEO         NOT AVBL

$$

NCZ045>047-081-094-103-104-221900-
CENTRAL COAST

CITY           SKY/WX    TMP DP  RH WIND       PRES   REMARKS
FRISCO         PTSUNNY   82  74  76 S10       30.12F
SWANQUARTER      N/A     81 N/A N/A S8G17     30.09S

$$

NCZ095-097-098-100-101-221900-
SOUTHERN COAST

CITY           SKY/WX    TMP DP  RH WIND       PRES   REMARKS
BEAUFORT       LGT RAIN  79  76  90 S8        30.13F
CEDAR ISLAND     N/A     79 N/A N/A S7G13     30.15F
JACKSONVILLE   LGT RAIN  75  73  94 SE6       30.12F FOG
NEWPORT        NOT AVBL
PINEY ISLAND   LGT RAIN  78  77  96 S9        30.12F
WILMINGTON     RAIN      79  76  90 NE5       30.11S FOG


$$

NCZ011>013-027>030-043-044-078>080-089-090>093-098-221900-
COASTAL PLAIN

CITY           SKY/WX    TMP DP  RH WIND       PRES   REMARKS
AHOSKIE        MOSUNNY   80  74  79 NE5       30.14F
CLINTON        MOSUNNY   86  74  66 CALM      30.11F
ELIZABETHTOWN  MOSUNNY   84  73  69 CALM      30.11F
GOLDSBORO      PTSUNNY   86  77  74 N8        30.09F
GREENVILLE     PTSUNNY   86  75  70 NE9       30.11F
HAVELOCK       CLOUDY    77  74  90 S8        30.13F
KENANSVILLE    PTSUNNY   84  70  64 CALM      30.11F
KINSTON        MOSUNNY   86  72  62 NE3       30.11F
NEW BERN       LGT RAIN  79  75  87 S7        30.13S
RICHLANDS      CLOUDY    77  72  83 SE12      30.13R
ROANOKE RAPIDS NOT AVBL
ROCKY MOUNT    LGT RAIN  80  74  81 CALM      30.12F
WASHINGTON     CLOUDY    76  73  90 NE5       30.11S VSB 1
WHITEVILLE     MOSUNNY   84  72  67 N6        30.10F

$$

AMZ130-135-150-152-154-156-158-170-250-252-270-ANZ085-086-088-633-658-670-221900-
MARINE OBSERVATIONS

STATION/POSITION TIME  TEMP    WIND        PRES    WAVE   SWELL
                       AIR SEA DIR/SP/G            HT/PER HT/PER
                 (UTC) (F)     (DEG/KT/KT) (MB)    (FT/S) (FT/S)
CHESAPEAKE LIGHT NOT AVBL
BUOY 44014       1800   77 78   70/ 12/ 14 1020.7    3/ 7   2/ 7
DUCK             1800   78 77   80/ 10/ 12 1020.0
2E DUCK          1800                        N/A     3/ 8
OREGON INLET     1800   81 77  170/ 10/ 12 1020.2
BUOY 44095       1800      79                N/A     3/ 8
20E OREGON INLET NOT AVBL
HATTERAS CG      1800   80 81  170/  9/ 12 1020.4
DIAMOND BUOY     1800          VRB 16/ 17  1019.8    4/ 8   2/ 8
CAPE LOOKOUT     1700   76     170/ 14/ 16 1020.5
BEAUFORT LAB     1800   77 80  180/  9/ 10 1019.8
30 SE NEW RIVER  1800   78 80  160/ 10/ 12 1020.2    4/ 7   3/ 7
5 SE WRIGHTSVILL 1700   76 81  140/  4/  6   N/A
BUOY 41002       1711   82 83  190/ 12/ 14 1022.1    4/ 8   3/ 8
BUOY 41004       1800   79 83   70/  4/  6 1018.9    3/ 5   3/ 5

$$


USA.gov is the U.S. government's official web portal to all federal, state and local government web resources and services.